Temperature
17 16 15 15 14 14 13 13 12 12 12 12 12 13 13 13 14 14 14 13 13 13 13 13 13 13 13 13 14 14 14 14 14 13 13 13 14 14 14 14 14 14 15
17 16 15 14 14 13 13 12 12 12 12 12 12 12 13 13 13 13 13 13 13 13 12 12 13 13 13 13 14 14 14 14 14 13 13 13 13 13 13 13 14 14 14
16 16 15 14 14 13 13 12 12 12 11 11 12 12 12 12 12 13 12 12 12 12 12 12 12 13 13 13 14 14 14 13 13 13 13 13 13 13 13 13 13 13 13
17 16 15 14 14 13 12 12 12 11 11 11 11 12 12 12 12 12 12 12 12 12 12 12 12 13 13 13 14 14 13 13 13 13 13 13 12 13 13 13 13 13 12
17 16 15 14 14 13 12 12 12 11 11 11 11 11 11 11 11 11 11 11 11 11 12 12 12 13 13 13 13 13 13 13 13 13 12 12 12 12 12 12 12 12 12
17 16 15 14 14 13 12 12 12 11 11 11 11 11 11 11 11 11 11 11 11 11 12 12 12 12 12 12 12 12 13 13 12 12 12 11 11 11 11 11 12 12 11
17 16 15 14 14 13 12 12 12 11 11 11 11 11 11 11 11 11 11 11 11 11 12 12 12 12 12 12 12 12 12 12 12 11 11 11 11 11 11 11 11 11 11
16 16 15 14 14 13 12 12 11 11 11 11 11 11 11 11 11 11 11 11 11 11 11 11 11 11 11 11 12 12 11 11 11 11 11 11 10 10 10 10 10 10 10
15 15 15 14 14 13 12 12 12 11 11 11 11 11 11 11 11 11 11 11 11 11 11 11 11 11 11 11 11 11 11 11 11 11 11 10 10 10 10 10 10 10 10
13 14 15 14 14 13 13 12 12 11 11 11 11 11 11 11 11 11 11 11 11 11 11 11 11 11 11 11 11 11 11 11 11 11 10 10 10 10 10 10 10 10 9
11 12 13 14 14 13 13 12 12 11 11 11 11 11 11 11 11 11 11 11 11 11 11 11 11 10 10 11 11 11 11 11 10 10 10 10 10 10 9 9 9 9 9
10 11 12 13 13 13 13 12 12 11 11 11 11 11 11 11 11 11 11 11 11 11 11 11 10 10 10 10 10 10 10 10 10 10 10 9 9 9 9 9 9 9 9
9 10 11 12 13 13 13 12 12 11 11 11 12 12 11 11 11 11 11 11 11 11 11 11 10 10 10 10 10 10 10 9 9 9 9 9 9 9 9 9 9 8 8
8 9 10 11 12 12 13 13 12 11 11 11 11 12 12 11 11 11 11 11 11 11 11 10 10 10 10 10 10 9 9 9 9 8 8 8 8 8 8 8 8 8 8
8 8 9 10 11 12 12 13 12 12 12 12 12 12 12 12 12 11 11 11 11 11 11 10 10 10 10 9 9 9 9 9 8 8 8 8 8 8 8 8 8 8 7
7 8 8 9 10 11 12 12 12 12 12 12 12 12 12 12 12 11 11 11 11 11 11 10 10 10 10 9 9 9 9 9 8 8 8 8 8 7 7 7 7 7 7
7 7 8 8 9 11 11 12 12 11 11 11 11 11 12 12 11 11 11 11 11 10 10 10 10 10 10 10 9 9 9 9 8 8 8 7 7 7 7 7 7 7 7
7 7 7 8 9 10 11 12 12 12 11 11 11 11 11 11 11 11 11 11 10 10 10 11 10 10 10 10 10 9 9 9 8 8 8 7 7 7 7 7 7 7 6
7 7 7 8 8 9 11 11 12 12 12 11 11 11 11 11 11 11 11 11 11 11 11 11 11 10 11 10 10 10 9 9 8 8 8 7 7 7 7 6 6 6 6
7 7 7 7 8 9 10 11 11 12 11 11 11 11 11 10 10 10 11 11 11 11 11 11 11 10 10 10 10 10 9 9 9 8 8 8 7 7 7 6 6 6 6
7 7 7 7 8 9 10 11 11 12 12 12 11 11 11 11 11 11 11 11 11 11 11 11 11 11 10 10 10 10 10 9 9 8 8 8 7 7 7 6 6 6 5
7 7 7 7 8 9 10 11 11 12 12 12 12 11 11 11 11 11 11 11 11 11 11 11 11 11 11 11 10 10 10 9 9 9 8 8 8 7 7 6 6 5 5
7 7 7 8 8 9 10 11 11 12 12 12 12 11 11 11 11 11 11 11 11 11 11 11 11 11 11 11 11 10 10 10 10 9 9 8 8 8 7 6 6 5 5
7 7 7 8 9 9 10 11 11 12 12 12 12 12 11 11 11 11 11 11 11 11 11 11 11 11 11 11 11 10 10 10 10 9 9 9 8 8 7 7 6 5 5
7 7 7 8 9 10 10 11 11 11 12 12 12 12 11 11 11 11 10 10 10 11 11 11 11 11 11 11 11 11 10 10 10 10 9 9 9 8 8 7 6 5 5
7 7 8 9 9 10 10 11 11 12 12 12 12 12 12 11 11 11 11 10 11 11 11 11 11 11 11 11 11 11 11 10 10 10 10 9 9 8 8 7 6 5 5
Wind_Speed
7 5 4 3 2 2 3 5 6 6 8 9 9 9 7 5 2 1 3 5 5 4 3 4 4 3 2 1 2 2 3 4 6 4 4 5 7 7 6 6 8 7 7
8 7 6 5 3 2 3 5 6 6 7 8 8 8 7 5 3 2 4 5 6 6 5 5 4 5 5 4 4 5 5 6 7 7 5 6 7 5 6 6 6 7 7
8 7 7 6 5 4 4 4 4 5 6 7 7 8 8 7 6 7 8 8 8 8 7 7 6 8 8 7 8 8 8 10 8 8 5 5 5 4 5 5 6 5 6
8 8 8 7 7 6 4 3 3 3 4 6 6 8 8 9 10 10 11 11 11 10 8 7 7 8 8 9 10 11 11 11 9 8 6 5 4 3 4 4 5 4 5
9 9 9 8 7 6 5 3 2 2 2 3 5 7 8 8 9 10 10 12 11 11 10 9 10 12 12 10 10 9 10 9 8 7 5 5 5 5 4 4 4 4 3
9 9 8 8 7 7 6 4 3 2 0 2 3 5 7 6 9 12 10 9 9 10 9 8 9 10 13 15 15 13 11 9 8 6 4 5 4 4 4 4 4 4 4
10 9 8 9 8 8 6 5 5 4 3 2 2 5 6 6 10 12 12 9 9 8 8 8 8 9 9 9 12 14 13 13 9 6 5 4 3 3 4 5 4 3 2
9 9 9 9 9 8 7 6 6 5 5 4 4 5 5 6 11 13 14 10 9 8 8 8 9 8 7 9 9 9 9 8 7 5 4 3 2 2 2 1 1 2 3
9 10 10 11 10 10 9 8 6 5 5 5 5 6 6 6 11 14 13 8 8 8 7 7 9 8 11 13 11 9 9 7 8 10 8 7 7 8 6 5 6 5 4
10 8 9 11 12 12 11 8 6 6 7 7 7 6 7 6 10 14 13 8 8 6 6 7 10 10 12 12 9 9 9 6 7 9 9 9 8 9 10 6 3 3 2
14 10 8 11 12 12 11 8 7 7 8 8 8 6 6 7 9 13 14 8 8 7 5 4 4 11 12 12 10 8 8 7 7 8 7 7 7 7 7 6 4 3 3
13 12 8 9 11 11 12 10 9 10 9 8 7 6 4 5 6 10 14 13 11 8 6 4 5 10 11 11 9 11 13 10 7 7 7 6 5 5 5 6 6 5 4
13 12 10 9 10 12 13 13 11 10 9 9 8 7 6 4 4 9 13 16 15 7 6 9 9 11 10 8 11 13 10 7 6 6 5 4 2 2 4 5 7 6 6
12 12 11 9 10 11 12 12 12 12 11 10 9 9 7 6 5 5 6 8 10 8 6 7 8 9 8 7 7 7 6 5 5 5 3 3 3 4 5 4 5 5 5
12 10 10 9 10 11 12 13 15 13 15 13 11 11 11 9 10 14 11 8 7 7 7 4 3 3 4 4 4 4 4 5 5 4 4 5 5 4 4 4 4 5 5
10 10 8 8 7 9 11 9 12 12 18 19 17 14 11 13 18 18 16 16 15 15 8 4 4 4 4 5 5 4 3 4 4 4 5 4 4 4 3 4 4 5 4
9 10 9 9 8 8 11 12 10 6 12 17 17 18 15 17 20 20 18 17 16 14 5 5 4 4 5 6 6 5 4 4 4 5 5 4 4 3 3 4 4 4 4
9 10 9 9 8 8 11 12 13 13 11 7 8 14 17 20 20 20 18 13 7 5 4 5 4 4 6 8 7 6 5 5 4 4 4 4 4 3 3 3 3 3 3
9 7 7 8 8 7 9 11 12 13 12 9 5 5 10 14 17 18 17 7 8 6 5 5 5 5 7 8 8 7 7 6 6 5 4 4 4 4 3 3 3 5 4
8 12 10 8 7 6 9 11 12 12 11 11 11 9 9 8 7 9 7 6 7 7 6 6 6 7 7 8 9 8 7 6 7 5 5 5 4 4 5 4 3 3 2
8 8 11 9 7 7 9 12 12 13 12 12 11 13 18 14 14 13 10 8 8 7 7 7 6 8 8 8 8 9 9 7 7 7 6 6 5 4 4 4 4 4 3
7 7 6 7 7 8 9 11 13 13 14 13 10 11 17 11 11 11 10 9 8 7 7 7 7 8 10 10 10 9 8 8 7 7 7 6 6 5 5 4 3 3 3
7 7 7 7 7 8 11 11 13 13 13 12 12 12 12 9 9 10 10 9 8 7 6 6 7 7 8 7 7 9 10 10 10 11 9 8 7 6 5 5 5 4 4
7 7 7 7 6 8 10 12 12 13 13 13 12 12 13 12 10 11 10 8 8 7 7 7 8 10 12 9 8 11 11 13 14 12 13 11 9 7 6 5 5 5 4
6 7 7 6 6 8 10 11 12 13 13 13 12 12 12 11 10 9 8 8 9 8 9 9 8 10 13 13 11 12 16 19 19 17 14 11 11 10 9 8 6 5 4
6 6 5 4 5 8 10 11 11 12 13 13 12 12 12 11 10 9 8 8 8 8 9 8 10 11 12 13 16 18 19 20 22 21 17 10 11 10 10 7 8 6 6
Wind_Direction
194 189 184 199 223 277 301 304 310 316 324 330 331 333 331 328 333 163 155 152 155 145 132 125 112 103 103 104 118 120 127 123 113 70 37 29 39 34 23 29 40 41 34
198 194 194 200 206 236 281 298 308 317 325 332 337 344 349 356 21 75 110 120 127 121 111 105 106 103 91 86 89 86 86 89 101 88 43 30 33 29 31 34 32 41 41
195 195 199 202 204 216 252 285 309 325 337 347 1 8 12 26 48 68 82 86 93 94 95 98 97 95 86 80 82 85 87 89 88 90 59 28 24 20 24 30 36 29 37
195 195 201 204 201 205 219 256 298 327 349 359 13 21 28 45 60 70 79 81 80 78 80 82 81 85 84 82 85 90 96 92 85 81 64 33 17 352 25 20 19 18 22
195 198 206 203 195 194 203 229 272 306 352 4 26 41 42 56 73 81 84 88 86 81 72 67 68 73 73 78 89 91 95 94 86 79 65 45 24 17 5 355 18 358 359
199 203 202 192 188 190 198 205 212 226 251 48 54 59 58 73 93 96 100 95 91 85 76 66 62 59 69 71 76 78 88 97 95 86 72 61 32 13 5 15 21 29 3
208 201 192 188 187 189 189 186 196 199 184 142 102 86 80 92 108 106 104 101 92 85 79 74 74 66 68 71 67 63 62 72 91 107 92 78 58 14 29 27 22 44 7
214 202 192 187 187 183 179 186 193 184 176 162 141 121 103 105 115 110 103 96 90 84 84 88 84 65 69 83 74 60 49 45 56 79 113 121 118 101 85 79 2 23 340
230 208 197 188 184 179 180 186 185 173 168 160 154 141 117 104 118 120 110 101 94 82 77 80 89 80 76 82 79 71 54 29 44 69 84 88 73 65 66 51 36 42 9
288 241 206 192 185 184 182 179 174 168 166 156 154 152 133 120 122 127 120 116 107 97 78 69 78 88 82 81 83 82 71 46 53 60 52 42 40 41 47 58 72 71 39
313 288 232 200 191 184 177 171 166 164 159 158 156 155 145 139 130 138 140 137 137 129 116 100 86 95 90 86 85 84 94 94 75 70 58 41 34 32 28 28 48 104 92
315 303 263 217 197 186 175 173 168 165 165 164 157 153 154 155 148 152 157 156 152 142 146 145 132 112 102 94 85 90 87 81 73 66 56 40 34 27 16 23 34 57 85
313 312 295 244 209 183 178 177 173 171 173 175 169 167 166 165 169 162 160 161 157 146 156 159 147 120 100 87 87 88 83 80 77 70 60 41 23 17 24 28 24 29 35
306 309 306 267 220 192 182 179 179 181 180 179 179 175 167 161 164 158 146 148 147 134 133 147 129 104 89 87 81 77 81 96 100 92 76 43 35 40 35 33 35 29 40
298 300 303 281 228 198 189 187 185 188 186 183 185 179 173 177 187 173 160 159 159 151 132 104 93 90 88 83 79 83 83 84 83 72 66 55 47 46 27 20 38 49 53
292 295 295 290 249 206 189 185 191 184 185 184 183 178 185 181 172 176 175 171 166 155 134 136 149 149 147 145 139 123 106 106 106 94 77 72 68 61 37 21 38 54 50
274 284 293 293 265 215 188 180 177 176 183 185 185 183 177 170 169 175 177 172 166 153 136 156 168 173 165 159 157 150 147 148 133 110 96 87 83 68 55 35 32 44 41
266 274 284 289 269 225 193 183 179 175 174 180 191 191 178 169 168 166 158 140 147 153 155 166 177 173 160 160 162 157 149 145 134 126 118 109 101 88 72 55 51 66 57
262 264 275 286 270 234 195 180 177 175 175 167 145 160 175 164 159 160 155 152 165 175 178 175 171 161 163 165 166 163 158 156 154 149 147 143 131 112 95 81 79 74 76
255 260 267 279 268 234 195 179 174 172 168 168 171 162 150 143 155 171 184 171 169 174 178 179 175 167 168 171 169 167 163 159 157 158 163 163 152 134 127 118 105 96 90
251 258 270 279 263 229 199 181 174 170 170 172 174 171 167 173 177 181 187 183 180 178 177 178 177 174 175 176 171 173 171 171 170 168 170 171 164 152 148 142 129 121 124
249 251 262 275 260 223 196 180 172 170 171 168 164 166 173 174 175 181 188 193 189 182 176 173 177 179 180 180 177 175 176 176 175 173 174 175 170 162 155 147 135 129 135
243 252 261 269 251 207 187 178 172 170 169 167 163 163 176 183 178 183 189 192 188 185 181 177 179 183 186 182 178 177 179 185 183 178 175 174 171 167 161 157 154 148 155
249 256 259 262 232 193 179 173 171 169 168 167 166 169 178 186 185 187 188 187 188 190 185 183 187 192 191 188 186 187 187 186 180 179 174 173 172 169 163 161 162 163 167
254 259 257 238 206 179 169 166 167 167 167 169 171 173 178 184 186 186 185 186 189 193 194 191 192 197 196 192 190 194 195 187 182 180 177 173 172 171 168 165 166 164 169
260 262 247 209 182 167 164 162 162 162 164 169 172 174 177 183 188 186 183 184 189 194 197 196 197 196 196 198 200 197 193 190 187 182 178 175 174 175 172 169 167 166 160
Height
1477 1474 1472 1470 1467 1465 1462 1458 1454 1450 1446 1441 1436 1432 1429 1426 1425 1424 1425 1426 1428 1430 1433 1435 1437 1439 1441 1443 1445 1447 1450 1452 1454 1458 1459 1460 1460 1460 1460 1459 1458 1457 1457
1473 1471 1469 1467 1465 1463 1460 1457 1454 1450 1446 1441 1437 1432 1429 1426 1424 1424 1424 1425 1427 1430 1433 1435 1438 1440 1442 1444 1446 1448 1451 1453 1455 1457 1459 1460 1460 1460 1459 1458 1458 1457 1456
1469 1468 1466 1464 1462 1460 1459 1456 1453 1450 1446 1442 1438 1433 1430 1427 1426 1425 1425 1427 1429 1432 1435 1438 1440 1442 1444 1446 1448 1450 1452 1454 1456 1458 1460 1461 1461 1461 1460 1459 1458 1457 1456
1465 1464 1462 1461 1459 1458 1457 1455 1453 1450 1447 1444 1440 1436 1432 1430 1428 1428 1429 1430 1433 1436 1439 1442 1444 1446 1447 1448 1450 1452 1454 1456 1458 1460 1461 1462 1462 1461 1461 1460 1459 1458 1457
1461 1459 1458 1457 1456 1455 1454 1454 1453 1451 1449 1446 1443 1440 1437 1435 1434 1433 1434 1436 1438 1441 1444 1446 1448 1450 1451 1452 1454 1456 1457 1458 1460 1461 1462 1463 1463 1462 1462 1461 1460 1460 1459
1456 1455 1454 1454 1453 1452 1452 1452 1452 1451 1450 1448 1446 1443 1442 1441 1440 1440 1441 1443 1445 1447 1449 1451 1453 1454 1455 1456 1458 1459 1460 1461 1462 1463 1464 1464 1465 1464 1464 1463 1462 1461 1459
1451 1450 1450 1450 1449 1449 1449 1450 1450 1451 1450 1449 1448 1447 1446 1446 1446 1447 1448 1449 1451 1453 1455 1456 1457 1458 1459 1460 1461 1462 1463 1464 1465 1466 1466 1467 1467 1466 1466 1464 1463 1462 1461
1445 1444 1445 1445 1445 1445 1446 1447 1449 1450 1450 1450 1450 1450 1450 1450 1451 1452 1453 1454 1456 1457 1458 1460 1460 1461 1462 1463 1463 1464 1465 1466 1467 1468 1468 1469 1469 1468 1467 1466 1465 1463 1462
1439 1438 1439 1439 1440 1441 1442 1444 1446 1448 1449 1450 1451 1451 1452 1453 1454 1455 1456 1457 1458 1460 1461 1462 1463 1463 1464 1464 1465 1466 1467 1468 1469 1470 1470 1470 1470 1469 1468 1467 1465 1463 1462
1434 1433 1433 1433 1434 1435 1437 1440 1443 1445 1448 1449 1451 1452 1453 1455 1456 1458 1459 1460 1461 1462 1463 1464 1464 1464 1465 1466 1467 1467 1468 1470 1471 1471 1472 1472 1471 1470 1469 1468 1466 1465 1463
1427 1426 1426 1427 1428 1430 1432 1435 1439 1443 1445 1447 1449 1451 1453 1455 1457 1459 1460 1461 1462 1463 1464 1465 1465 1466 1467 1468 1469 1469 1470 1471 1472 1472 1472 1472 1472 1471 1470 1469 1468 1466 1465
1421 1418 1418 1419 1421 1423 1426 1430 1434 1439 1442 1444 1447 1449 1452 1454 1457 1458 1460 1462 1463 1464 1465 1466 1466 1468 1469 1470 1471 1472 1473 1473 1473 1473 1473 1473 1473 1472 1472 1471 1469 1467 1466
1415 1411 1410 1411 1414 1416 1419 1423 1428 1433 1437 1440 1443 1446 1449 1452 1455 1457 1459 1461 1463 1464 1465 1466 1468 1469 1471 1472 1473 1474 1474 1474 1474 1473 1473 1474 1474 1474 1473 1472 1471 1469 1468
1409 1405 1402 1403 1405 1408 1412 1416 1420 1426 1431 1435 1438 1442 1445 1449 1452 1455 1457 1460 1462 1464 1465 1467 1469 1471 1472 1473 1475 1475 1475 1475 1474 1474 1474 1475 1475 1475 1474 1473 1472 1470 1468
1402 1398 1395 1395 1396 1400 1404 1407 1412 1418 1423 1428 1433 1437 1440 1444 1448 1452 1455 1458 1460 1462 1464 1466 1469 1471 1473 1474 1475 1476 1476 1476 1475 1476 1476 1476 1476 1476 1475 1474 1472 1471 1470
1395 1392 1388 1387 1388 1391 1396 1401 1406 1412 1418 1424 1429 1433 1438 1442 1445 1449 1453 1456 1459 1461 1463 1466 1468 1470 1472 1473 1474 1475 1476 1476 1477 1477 1477 1477 1477 1477 1476 1475 1474 1472 1471
1389 1385 1381 1379 1380 1383 1388 1393 1398 1405 1412 1419 1424 1430 1434 1439 1442 1446 1450 1454 1457 1459 1462 1464 1466 1468 1470 1472 1473 1475 1476 1477 1477 1478 1478 1478 1478 1478 1477 1476 1475 1474 1472
1381 1378 1375 1372 1372 1375 1380 1385 1391 1397 1404 1411 1418 1424 1430 1435 1439 1443 1447 1450 1453 1456 1459 1462 1464 1466 1468 1470 1472 1474 1475 1476 1477 1478 1479 1479 1479 1478 1478 1477 1476 1475 1473
1373 1370 1368 1365 1365 1368 1373 1379 1384 1391 1397 1404 1411 1418 1425 1431 1436 1440 1443 1446 1449 1453 1456 1459 1462 1464 1466 1468 1470 1472 1474 1475 1476 1477 1478 1478 1478 1478 1477 1477 1476 1475 1473
1365 1363 1362 1359 1359 1362 1367 1372 1378 1384 1391 1398 1405 1412 1418 1424 1429 1433 1438 1442 1446 1449 1453 1456 1459 1462 1464 1467 1469 1471 1472 1474 1475 1476 1477 1477 1477 1477 1476 1476 1475 1474 1473
1357 1356 1355 1353 1353 1356 1361 1367 1373 1379 1386 1393 1399 1406 1412 1418 1423 1428 1433 1438 1442 1445 1449 1453 1456 1459 1462 1465 1467 1469 1470 1472 1473 1474 1475 1476 1476 1476 1475 1474 1474 1473 1472
1349 1348 1347 1346 1347 1350 1355 1362 1368 1375 1382 1389 1395 1402 1408 1414 1419 1424 1429 1434 1438 1442 1446 1449 1453 1456 1459 1462 1464 1466 1468 1469 1471 1472 1473 1474 1474 1474 1473 1473 1472 1471 1471
1343 1342 1340 1340 1341 1345 1351 1358 1364 1371 1378 1385 1391 1397 1403 1409 1415 1420 1425 1430 1434 1438 1442 1446 1449 1452 1456 1459 1461 1463 1465 1466 1468 1469 1470 1471 1471 1471 1470 1470 1470 1469 1469
1336 1335 1334 1334 1336 1341 1347 1354 1362 1368 1375 1382 1388 1394 1399 1405 1410 1415 1420 1425 1430 1434 1438 1442 1445 1449 1452 1455 1458 1460 1462 1463 1465 1466 1467 1467 1468 1468 1467 1467 1467 1467 1467
1330 1329 1328 1329 1332 1338 1345 1352 1359 1366 1373 1379 1385 1391 1396 1401 1406 1410 1415 1420 1425 1429 1433 1438 1442 1445 1448 1451 1454 1456 1458 1460 1461 1462 1463 1463 1464 1464 1464 1464 1463 1463 1463
1324 1324 1324 1326 1330 1336 1344 1351 1357 1364 1370 1377 1382 1388 1393 1398 1402 1407 1411 1416 1420 1425 1429 1434 1437 1441 1444 1447 1449 1451 1453 1455 1456 1457 1458 1459 1459 1459 1459 1459 1459 1459 1460